KC3PWY-13 Weather Reports


Display with metric or nautical units.
time (UTC)temp
F
wind
direction
speed
MPH
gust
MPH
rain 1hr
in
rain 24hr
in
rain mn
in
humidity
%
barometer
mb
20260509200910 69 270 2.0 5.0 0.00 0.18 0.15 59 1009.2
20260509195910 68 112 1.0 5.0 0.00 0.18 0.15 61 1009.3
20260509195024 67 180 2.0 3.0 0.00 0.19 0.15 67 1009.4
20260509193908 67 22 2.0 5.0 0.00 0.19 0.15 66 1009.5
20260509193023 67 135 2.0 4.0 0.00 0.19 0.15 68 1009.5
20260509191907 66 337 0.0 4.0 0.00 0.19 0.15 72 1009.7
20260509190907 65 202 2.0 4.0 0.00 0.19 0.15 71 1009.9
20260509185907 64 270 1.0 2.0 0.00 0.19 0.15 72 1010.0
20260509185021 65 270 1.0 3.0 0.00 0.19 0.15 74 1010.1
20260509183906 65 90 2.0 4.0 0.00 0.19 0.15 74 1010.1
20260509183020 65 292 3.0 4.0 0.00 0.19 0.15 75 1010.2
20260509181904 62 202 2.0 4.0 0.00 0.19 0.15 81 1010.4
20260509180904 63 337 0.0 3.0 0.00 0.19 0.15 81 1010.4
20260509175903 62 45 0.0 3.0 0.00 0.19 0.15 83 1010.5
20260509174903 61 202 2.0 3.0 0.00 0.19 0.15 84 1010.4
20260509173902 61 180 1.0 4.0 0.00 0.19 0.15 84 1010.5
20260509172902 62 270 0.0 4.0 0.00 0.19 0.15 82 1010.4
20260509171901 63 225 1.0 5.0 0.00 0.19 0.15 80 1010.3
20260509170900 61 112 1.0 3.0 0.00 0.19 0.15 87 1010.2
20260509165900 63 315 2.0 4.0 0.00 0.19 0.15 84 1010.2
20260509165015 61 225 1.0 3.0 0.00 0.19 0.15 87 1010.1
20260509163900 63 270 1.0 4.0 0.00 0.19 0.15 84 1010.0
20260509162859 62 270 1.0 3.0 0.00 0.19 0.15 90 1010.0
20260509162014 58 202 1.0 5.0 0.00 0.19 0.15 96 1010.2
20260509160858 59 202 2.0 3.0 0.00 0.19 0.15 98 1010.3
20260509155858 60 157 0.0 2.0 0.00 0.19 0.15 96 1010.1
20260509155013 58 225 2.0 4.0 0.01 0.19 0.15 99 1010.1
20260509153856 56 90 0.0 2.0 0.01 0.19 0.15 99 1010.2
20260509152856 54 180 0.0 4.0 0.01 0.19 0.15 99 1010.2
20260509151855 54 157 1.0 3.0 0.01 0.19 0.15 99 1010.2
20260509150855 53 45 0.0 1.0 0.01 0.19 0.15 99 1010.0
20260509145854 53 202 0.0 6.0 0.01 0.19 0.15 99 1010.3
20260509144853 53 180 0.0 1.0 0.00 0.18 0.14 99 1010.3
20260509143853 53 157 0.0 2.0 0.00 0.18 0.14 99 1010.3
20260509143007 53 112 0.0 2.0 0.00 0.18 0.14 99 1010.2
20260509141851 52 112 0.0 1.0 0.00 0.18 0.14 99 1010.2
20260509140852 52 67 0.0 1.0 0.01 0.18 0.14 99 1010.3
20260509140007 51 202 0.0 3.0 0.02 0.18 0.14 99 1010.4
20260509134851 51 225 0.0 1.0 0.03 0.18 0.14 99 1010.3
20260509133851 51 67 0.0 1.0 0.04 0.18 0.14 99 1010.5
20260509132850 51 225 0.0 3.0 0.04 0.18 0.14 99 1010.5
20260509132004 51 202 0.0 3.0 0.05 0.18 0.14 99 1010.6
20260509130848 50 45 0.0 2.0 0.05 0.17 0.13 99 1010.6
20260509125848 50 225 0.0 1.0 0.05 0.16 0.12 99 1010.6
20260509124848 50 112 0.0 1.0 0.05 0.15 0.11 99 1010.6
20260509123847 50 90 0.0 1.0 0.04 0.14 0.10 99 1010.7
20260509122847 50 202 0.0 1.0 0.05 0.14 0.10 99 1010.7
20260509121847 50 202 0.0 1.0 0.05 0.13 0.09 99 1010.7
20260509120846 50 157 0.0 1.0 0.06 0.12 0.08 99 1010.8
20260509120000 50 292 0.0 2.0 0.05 0.11 0.07 99 1010.8
20260509114846 50 157 0.0 2.0 0.04 0.10 0.06 99 1010.7
20260509113846 50 292 0.0 1.0 0.05 0.10 0.06 99 1010.7
20260509112844 49 90 0.0 2.0 0.04 0.09 0.05 99 1010.6
20260509112000 49 202 0.0 3.0 0.03 0.08 0.04 99 1010.5
20260509110844 49 22 0.0 3.0 0.01 0.06 0.02 99 1010.5
20260509105843 49 202 0.0 2.0 0.01 0.06 0.02 99 1010.4
20260509104843 49 22 0.0 3.0 0.01 0.06 0.02 99 1010.3
20260509103843 48 247 0.0 1.0 0.00 0.05 0.01 99 1010.3
20260509102842 48 270 0.0 1.0 0.00 0.05 0.01 99 1010.2
20260509101841 48 112 0.0 0.0 0.01 0.05 0.01 99 1010.3
20260509100955 48 112 0.0 0.0 0.01 0.05 0.01 99 1010.3
20260509095840 48 202 0.0 0.0 0.01 0.05 0.01 99 1010.4
20260509094955 48 67 0.0 0.0 0.01 0.05 0.01 99 1010.4
20260509093955 47 202 0.0 0.0 0.01 0.05 0.01 99 1010.5
20260509092839 47 45 0.0 0.0 0.01 0.05 0.01 99 1010.6
20260509091953 47 270 0.0 0.0 0.00 0.04 0.00 99 1010.8
20260509090953 47 202 0.0 0.0 0.00 0.04 0.00 99 1010.8
20260509085837 47 202 0.0 0.0 0.00 0.04 0.00 99 1010.8
20260509084952 47 270 0.0 0.0 0.00 0.04 0.00 99 1010.9
20260509083836 47 112 0.0 0.0 0.00 0.04 0.00 99 1010.9
20260509082950 47 225 0.0 0.0 0.00 0.04 0.00 99 1011.0
20260509081837 47 247 0.0 0.0 0.00 0.04 0.00 99 1010.9
20260509080834 47 180 0.0 0.0 0.00 0.04 0.00 99 1010.8
20260509075948 47 225 0.0 0.0 0.00 0.04 0.00 99 1010.9
20260509074834 48 157 0.0 0.0 0.00 0.04 0.00 99 1010.8
20260509073948 48 202 0.0 0.0 0.00 0.04 0.00 99 1010.9
20260509072947 47 225 0.0 0.0 0.00 0.04 0.00 99 1010.9
20260509071946 47 225 0.0 0.0 0.00 0.04 0.00 99 1010.7
20260509070946 47 270 0.0 0.0 0.00 0.04 0.00 99 1010.8
20260509065831 48 225 0.0 0.0 0.00 0.04 0.00 99 1010.7
20260509064830 48 225 0.0 0.0 0.00 0.04 0.00 99 1010.9
20260509063828 48 180 0.0 0.0 0.00 0.04 0.00 99 1010.9
20260509062944 48 135 0.0 0.0 0.00 0.04 0.00 99 1011.0
20260509061943 48 112 0.0 0.0 0.00 0.04 0.00 99 1011.2
20260509060828 48 112 0.0 0.0 0.00 0.04 0.00 99 1011.3
20260509055827 48 112 0.0 0.0 0.00 0.04 0.00 99 1011.5
20260509054827 48 112 0.0 0.0 0.00 0.04 0.00 99 1011.4
20260509053826 48 112 0.0 0.0 0.00 0.04 0.00 99 1011.6
20260509052825 48 157 0.0 0.0 0.00 0.04 0.00 99 1011.8
20260509051825 48 135 0.0 0.0 0.00 0.04 0.00 99 1011.9
20260509050824 48 135 0.0 0.0 0.00 0.04 0.00 99 1011.9
20260509045824 48 90 0.0 2.0 0.00 0.04 0.00 99 1011.9
20260509044823 48 112 1.0 2.0 0.00 0.04 0.00 99 1011.9
20260509043822 48 90 0.0 2.0 0.00 0.04 0.00 99 1012.0
20260509042821 48 90 1.0 2.0 0.00 0.04 0.00 99 1012.2
20260509041936 48 90 1.0 2.0 0.00 0.04 0.00 99 1012.4
20260509040820 48 90 1.0 2.0 0.00 0.04 0.00 99 1012.5
20260509035820 48 112 0.0 2.0 0.00 0.04 0.04 99 1012.6
20260509034819 48 112 1.0 2.0 0.01 0.04 0.04 99 1012.8
20260509033933 48 112 0.0 1.0 0.01 0.04 0.04 99 1013.0
20260509032818 49 112 0.0 0.0 0.02 0.04 0.04 99 1013.1
20260509031932 49 112 0.0 1.0 0.02 0.04 0.04 99 1013.3
20260509030932 49 112 0.0 0.0 0.03 0.04 0.04 99 1013.3
20260509025817 49 180 0.0 0.0 0.03 0.04 0.04 99 1013.5
20260509024930 49 112 0.0 0.0 0.02 0.03 0.03 99 1013.7
20260509023815 49 202 0.0 0.0 0.02 0.03 0.03 99 1013.7
20260509022814 49 135 0.0 0.0 0.01 0.02 0.02 99 1013.8
20260509021815 49 247 0.0 2.0 0.01 0.02 0.02 99 1013.7
20260509020814 50 292 0.0 1.0 0.00 0.01 0.01 99 1013.7
20260509015813 50 247 0.0 0.0 0.00 0.01 0.01 97 1013.5
20260509014812 50 180 0.0 1.0 0.00 0.01 0.01 94 1013.2
20260509013929 50 135 1.0 2.0 0.00 0.01 0.01 94 1012.9
20260509012812 50 90 2.0 3.0 0.00 0.01 0.01 93 1012.5
20260509011810 50 90 0.0 2.0 0.00 0.01 0.01 92 1012.7
20260509010810 51 135 1.0 2.0 0.00 0.01 0.01 90 1012.4
20260509005809 51 112 0.0 2.0 0.00 0.01 0.01 88 1012.4
20260509004808 51 135 2.0 3.0 0.00 0.01 0.01 88 1012.1
20260509003922 51 45 0.0 2.0 0.00 0.01 0.01 89 1012.1
20260509002807 51 90 1.0 2.0 0.00 0.01 0.01 89 1012.2
20260509001806 52 67 1.0 2.0 0.00 0.01 0.01 88 1012.2
20260509000807 52 0 0.0 2.0 0.00 0.01 0.01 88 1012.1
20260508235807 52 157 0.0 2.0 0.00 0.01 0.01 87 1011.7
20260508234805 52 112 0.0 0.0 0.00 0.01 0.01 87 1011.9
20260508233805 52 45 0.0 2.0 0.00 0.01 0.01 87 1012.0
20260508232804 52 112 2.0 2.0 0.00 0.01 0.01 88 1012.1
20260508231919 53 90 0.0 1.0 0.00 0.01 0.01 86 1012.2
20260508230803 53 45 0.0 0.0 0.00 0.01 0.01 85 1012.3
20260508225917 53 90 0.0 0.0 0.00 0.01 0.01 84 1012.2
20260508224802 53 112 0.0 0.0 0.00 0.01 0.01 85 1012.2
20260508223916 53 157 0.0 0.0 0.00 0.01 0.01 86 1012.3
20260508222800 54 157 0.0 0.0 0.00 0.01 0.01 83 1012.5
20260508221800 54 157 0.0 1.0 0.00 0.01 0.01 83 1012.2
20260508220759 54 22 0.0 0.0 0.00 0.01 0.01 81 1012.3
20260508215759 55 180 0.0 0.0 0.00 0.01 0.01 80 1012.4
20260508214759 55 247 0.0 0.0 0.00 0.01 0.01 82 1012.4
20260508213758 55 22 0.0 0.0 0.00 0.01 0.01 81 1012.5
20260508212757 55 180 0.0 0.0 0.00 0.01 0.01 79 1012.4
20260508211756 55 225 0.0 0.0 0.00 0.01 0.01 80 1012.5
20260508210756 55 180 0.0 0.0 0.00 0.01 0.01 82 1012.5
20260508205756 55 157 0.0 0.0 0.00 0.01 0.01 82 1012.5
20260508204755 55 202 0.0 0.0 0.01 0.01 0.01 81 1012.6
20260508203755 55 180 0.0 0.0 0.01 0.01 0.01 85 1012.8
20260508202755 54 202 0.0 0.0 0.01 0.01 0.01 84 1013.0